Regional Weather Roundup
Issued by NWS

Home | Current Version | Previous Version | Graphics & Text | Print | Product List | Glossary On
Versions: 1 2 3 4 5 6 7 8 9 10 11 12 13 14 15 16 17 18 19 20 21 22 23 24 25 26 27
000
ASUS43 KDMX 220707
RWRIA

WEATHER ROUNDUP FOR IOWA
NATIONAL WEATHER SERVICE DES MOINES IA
200 AM CDT TUE APR 22 2014

NOTE: "FAIR" INDICATES FEW OR NO CLOUDS BELOW 12,000 FEET WITH NO
SIGNIFICANT WEATHER AND/OR OBSTRUCTIONS TO VISIBILITY.

* - THESE STATIONS ARE NOT NWS STATIONS...THUS NOT UNDER NWS
QUALITY CONTROL.  THEY ALSO DO NOT REPORT WEATHER SUCH
AS PRECIPITATION OR FOG.

IAZ001>003-012>014-020>022-031>034-043>046-220800-
   NORTHWEST IOWA

CITY           SKY/WX    TMP DP  RH WIND       PRES   REMARKS
CARROLL *      CLEAR     45  32  61 N12       30.14S
CHEROKEE *     CLEAR     41  30  65 CALM      30.15S
DENISON *      CLEAR     45  32  61 N7        30.14S
LE MARS *      CLEAR     36  30  80 CALM      30.17R
ORANGE CITY *  CLEAR     46  28  49 NE3       30.15F
SHELDON *      CLEAR     34  27  75 CALM      30.15R
SIOUX CITY     CLEAR     45  31  58 VRB3      30.17R
SPENCER        CLEAR     41  30  65 N7        30.15S
STORM LAKE *   CLEAR     43  30  61 N13       30.15S
$$

IAZ055>058-069>071-079>083-090>094-220800-
   SOUTHWEST IOWA

CITY           SKY/WX    TMP DP  RH WIND       PRES   REMARKS
ATLANTIC *     CLEAR     45  36  70 N8        30.13F
AUDUBON *      CLEAR     43  32  65 N7        30.14F
CLARINDA *     CLEAR     48  36  61 N10       30.14S
COUNCIL BLFS * CLEAR     46  36  66 N8        30.14S
CRESTON *      CLEAR     48  34  57 N13       30.11S
HARLAN  *      CLEAR     46  34  61 N10       30.18S
LAMONI         CLEAR     50  34  54 N13       30.09R
RED OAK *      CLEAR     45  37  76 N8        30.14S
SHENANDOAH *   CLEAR     46  37  71 N6        30.15R
$$

IAZ047>049-059>061-072>074-084-220800-
   CENTRAL IOWA

CITY           SKY/WX    TMP DP  RH WIND       PRES   REMARKS
AMES           CLEAR     47  33  58 N16       30.10R
ANKENY *       CLEAR     48  34  57 N13G21    30.09S
CHARITON *     CLEAR     50  36  57 N14G21    30.08R
DES MOINES     CLEAR     52  31  44 N17G26    30.09R
GRINNELL*      CLEAR     43  36  75 NW13      30.06R
KNOXVILLE *    CLEAR     50  36  57 N15G22    30.06S
MARSHALLTOWN   CLEAR     45  34  65 NW16      30.06R
NEWTON *       CLEAR     46  34  61 N15       30.07S
PELLA *        CLEAR     48  36  61 N14G20    30.07R
PERRY *          N/A     46  32  57 N12       30.12S
$$

IAZ004>006-015-016-023>025-035-036-220800-
   NORTH CENTRAL IOWA

CITY           SKY/WX    TMP DP  RH WIND       PRES   REMARKS
ALGONA *       CLEAR     41  32  70 NW10      30.13S
CLARION *      CLEAR     41  34  75 NW10      30.11R
ESTHERVILLE    CLEAR     37  30  75 NW8       30.13R WCI  31
FORT DODGE *   CLEAR     45  32  61 N7        30.13S
MASON CITY     CLEAR     41  33  73 NW13      30.11R
FOREST CITY *  CLEAR     43  32  65 NW13      30.10R
IOWA FALLS *     N/A     43  34  70 NW13      30.10R
$$

IAZ007>011-017>019-026>030-037>042-050>054-066-220800-
   NORTHEAST IOWA

CITY           SKY/WX    TMP DP  RH WIND       PRES   REMARKS
CEDAR RAPIDS   CLEAR     47  39  74 NW13      30.00R
CHARLES CITY * CLEAR     45  32  61 N16G25    30.07R
CLINTON *      CLEAR     46  36  66 N9        29.96R
DECORAH *      CLEAR     45  32  61 N15G21    30.01S
DUBUQUE        CLEAR     49  32  52 N13       29.95R
MONTICELLO *   CLEAR     46  37  71 NW9       29.97S
OELWEIN *      CLEAR    N/A N/A N/A N15       30.03R
WATERLOO       CLEAR     45  34  65 N14       30.04R
$$

IAZ064-065-067-068-078-220800-
   EAST CENTRAL IOWA

CITY           SKY/WX    TMP DP  RH WIND       PRES   REMARKS
DAVENPORT      CLEAR     48  39  71 NW10      29.95R
IOWA CITY      CLEAR     50  39  66 NW13      30.01R
MT. PLEASANT * CLEAR     52  39  62 NW14G20   29.99R
MUSCATINE *    CLEAR     50  41  71 NW13      29.98R
QUAD CITIES    CLEAR     51  40  65 NW9       29.94R
$$

IAZ062-063-075>077-085>089-095>099-220800-
   SOUTHEAST IOWA

CITY           SKY/WX    TMP DP  RH WIND       PRES   REMARKS
BURLINGTON     CLEAR     52  41  66 NW14      29.96R
FAIRFIELD *    CLEAR     48  39  71 NW17G23   30.01S
FORT MADISON * CLEAR     52  43  71 NW14G22   29.99R
KEOKUK *       CLEAR     52  43  71 NW12      29.98R
OSKALOOSA *      N/A     45  39  81 NW8       30.05R
CENTERVILLE *  CLEAR     48  37  66 NW14      30.07R
OTTUMWA        CLEAR     47  37  68 NW13      30.03R
WASHINGTON *   CLEAR     48  41  76 NW18      30.00S
$$

ABBREVIATIONS USED IN REMARKS
   TC - TEMPERATURES IN CELSIUS
  WCI - WIND CHILL INDEX
   HX - HEAT INDEX
  VSB - VISIBILITY
$$




USA.gov is the U.S. government's official web portal to all federal, state and local government web resources and services.